Location: Sinnemahoning State Park
(41.4031°N, 78.0230°W)
Time: 07:29:34
(UTC-05:00)

Daily predictions for brighter satellites

Satellite Brightness Start Highest point End
(mag) Time Altitude Azimuth Time Altitude Azimuth Time Altitude Azimuth
Cosmos 2181 Rocket 4.1 17:01:12 10° S 17:07:33 86° E 17:14:02 10° N
Cosmos 1295 Rocket 4.5 17:01:48 10° N 17:07:57 79° E 17:14:02 10° S
SL-27 R/B 2.5 17:06:37 10° NNW 17:10:17 74° ENE 17:13:54 10° SSE
CZ-2C R/B 3.8 17:07:09 10° NNE 17:11:38 82° WNW 17:16:07 10° SSW
Meteor 1-18 Rocket 4.5 17:11:55 10° SSE 17:17:20 50° E 17:22:53 10° NNE
Okean 1 4.1 17:14:41 10° SSE 17:18:17 31° E 17:21:53 10° NNE
Cosmos 1844 3.7 17:14:06 10° SSW 17:19:39 88° ESE 17:25:15 10° NNE
Cosmos 1536 4.2 17:16:44 10° NNW 17:20:38 44° W 17:24:31 10° SSW
Abrixas 3.7 17:18:12 10° NW 17:20:46 25° NNE 17:23:15 10° ENE
Cosmos 1346 Rocket 3.7 17:25:53 10° SSE 17:29:12 27° E 17:32:31 10° NNE
ISS -1.5 17:29:45 10° WNW 17:32:26 22° NNW 17:35:07 10° NE
Cosmos 1544 Rocket 3.6 17:29:05 10° N 17:33:34 89° W 17:38:02 10° S
PAYLOAD A 4.2 17:29:56 10° S 17:34:44 74° WSW 17:39:46 10° NNW
Cosmos 2278 Rocket 2.2 17:29:18 10° SSW 17:34:54 72° ESE 17:40:34 10° NNE
USA 116 4.4 17:30:20 10° NNE 17:35:45 80° ESE 17:40:53 10° S
COSMO-SKYMED 1 3.6 17:34:01 10° NE 17:37:41 26° E 17:41:21 10° SSE
SMAP 3.0 17:34:38 10° SSE 17:39:17 80° ENE 17:43:57 10° N
USA 234 3.4 17:35:09 10° NE 17:41:42 80° NW 17:48:14 10° SW
CZ-4 R/B 4.4 17:41:59 10° SSE 17:46:05 64° ENE 17:50:12 10° N
BREEZE M DEB (TANK) 3.6 17:44:55 10° NW 17:47:58 36° NNE 17:53:28 15° E
SL-8 R/B 3.8 17:44:09 10° WSW 17:48:55 71° NNW 17:52:28 18° ENE
Genesis I 3.1 17:47:01 10° NNW 17:50:56 65° NE 17:54:48 10° SE
NOSS 3-4 (A) 4.5 17:46:21 10° NNW 17:52:27 31° NE 17:57:34 15° E
Cosmos 1536 Rocket 3.6 17:50:03 10° S 17:54:30 85° W 17:59:01 10° N
Nadezhda 3 Rocket 4.1 17:50:00 10° SSE 17:55:57 52° E 18:02:01 10° NNE
Cosmos 1833 Rocket 3.1 17:52:18 10° N 17:57:35 39° ENE 18:02:50 10° SE
Cosmos 1025 Rocket 4.1 17:55:15 10° SE 17:58:44 23° E 17:59:28 22° ENE
NOSS 3-3 (A) 4.1 17:53:05 10° SW 17:59:16 81° NW 18:05:34 12° NNE
NOSS 3-3 (C) 4.1 17:53:11 10° SW 17:59:22 81° NW 18:05:39 12° NNE
Cosmos 2082 Rocket 2.4 17:54:53 10° NNW 18:00:22 48° ENE 18:05:51 10° SE
Cosmos 921 Rocket 3.4 17:57:07 10° S 18:01:04 40° E 18:03:30 21° NE
EP 1 4.2 17:59:27 10° SSW 18:02:02 62° ESE 18:02:42 41° ENE
YAOGAN 1 3.1 17:58:47 10° S 18:03:03 61° W 18:07:21 10° NNW
Cosmos 1238 Rocket 3.8 18:00:29 10° SW 18:03:11 34° WNW 18:06:04 10° N
SPOT 3 Rocket 4.2 17:58:36 10° S 18:03:43 59° WSW 18:08:50 10° NNW
MSX 3.8 17:58:12 10° SSE 18:03:57 88° ENE 18:09:44 10° NNW
CZ-4 R/B 3.0 18:00:44 10° SSW 18:04:37 38° W 18:08:31 10° NNW
Meteor 2-21 Rocket 4.5 17:58:41 10° N 18:04:48 58° E 18:10:49 10° SSE
Cosmos 1975 3.0 18:01:26 10° NNW 18:05:31 75° W 18:09:31 10° S
GRACE-2 4.1 18:03:01 10° SSE 18:05:40 42° E 18:05:48 42° ENE
Cosmos 1743 3.1 18:02:16 10° N 18:05:56 39° ENE 18:09:34 10° SSE
GRACE-1 4.1 18:03:25 10° SSE 18:06:05 44° E 18:06:18 43° ENE
ATLAS 2AS CENTAUR R/B 3.9 18:00:07 10° NW 18:07:51 53° WSW 18:15:03 10° S
GEOS 3 Rocket 4.0 18:06:32 18° ESE 18:09:49 39° NE 18:14:34 10° NNW
COSMOS 2487 2.4 18:06:27 10° NNW 18:10:04 86° ENE 18:13:39 10° SSE
Cosmos 1500 3.2 18:06:49 10° N 18:10:39 81° W 18:14:30 10° S
Cosmos 1484 Rocket 2.5 18:07:45 10° SSE 18:11:29 72° ENE 18:15:12 10° N
CZ-2C R/B 3.5 18:07:29 10° S 18:12:18 49° W 18:17:16 10° NNW
MONITOR-E 4.3 18:10:15 10° S 18:13:25 76° WSW 18:16:39 10° NNW
Meteor 1-28 Rocket 3.7 18:15:53 37° E 18:16:17 38° E 18:19:49 10° SSE
Tiangong 1 0.8 18:16:36 10° WSW 18:19:38 72° SSE 18:19:54 65° ESE
Meteor 1-13 Rocket 4.2 18:14:28 10° S 18:20:07 75° E 18:25:56 10° NNE
SKYMED 2 3.5 18:21:59 13° NNE 18:25:56 90° WSW 18:30:16 10° SSW
IDEFIX/ARIANE 42P 4.2 18:24:01 10° SSW 18:28:46 36° W 18:33:32 10° NNW
FALCON 9 R/B 3.9 18:04:53 10° WSW 18:30:51 60° S 18:35:31 25° ESE
BREEZE-M R/B 4.3 18:22:06 10° WSW 18:32:21 64° NNW 18:34:45 33° NE
Delta 2 Rocket 4.3 18:28:57 10° WSW 18:32:25 34° S 18:33:18 30° SE
Meteor 2-4 Rocket 3.6 18:31:13 10° S 18:36:29 59° E 18:38:55 31° NNE
Okean 1-7 Rocket 3.6 18:32:05 10° S 18:36:36 83° W 18:39:56 18° N
Meteor 2-9 Rocket 4.1 18:32:31 10° N 18:37:51 54° ENE 18:43:04 10° SSE
Cosmos 1934 Rocket 3.9 18:41:18 10° N 18:47:29 69° E 18:53:45 10° SSE
Cosmos 1535 Rocket 4.4 18:44:50 10° N 18:51:11 88° W 18:57:23 10° S
NOSS 2-1 (D) 3.5 18:49:29 10° SW 18:53:17 67° NW 18:53:30 65° NNW
NOSS 2-1 (C) 3.5 18:50:09 10° SW 18:53:59 68° NW 18:54:09 67° NW
Meteor 2-8 Rocket 4.3 18:57:33 10° S 19:03:37 82° E 19:06:35 33° NNE
BREEZE M DEB (TANK) 3.1 19:03:13 10° WSW 19:08:45 50° WNW 19:08:45 50° WNW
NOSS 2-1 (E) 4.3 19:08:54 10° SW 19:12:13 46° WNW 19:12:13 46° WNW
Cosmos 1821 Rocket 4.5 19:10:31 10° NNW 19:16:28 56° W 19:22:23 10° SSW
Cosmos 2278 Rocket 4.5 19:15:38 10° W 19:19:35 19° NW 19:23:33 10° N
USA 234 4.4 19:22:16 28° N 19:24:08 32° NNW 19:29:46 10° W
Cosmos 1605 Rocket 3.9 19:20:47 10° N 19:27:06 84° W 19:33:18 10° S
CZ-3B DEB 4.0 19:23:25 10° WNW 19:28:48 39° N 19:31:38 33° NNE
Cosmos 2056 Rocket 4.1 19:27:41 10° SSW 19:32:41 56° W 19:32:41 56° W
Cosmos 1833 Rocket 4.4 19:36:31 10° NW 19:41:20 30° WSW 19:46:06 10° SSW
NOSS 3-4 (A) 4.0 19:36:54 10° NW 19:43:54 68° WSW 19:45:08 59° S
NOSS 3-4 (C) 4.0 19:36:59 10° NW 19:44:00 69° WSW 19:45:08 60° SSW
Cosmos 2082 Rocket 4.3 19:39:40 10° NW 19:44:05 24° WSW 19:48:32 10° SSW
